Weather Roundup
Issued by NWS Springfield, MO

Home | Current Version | Previous Version | Text Only | Print | Product List | Glossary On
Versions: 1 2 3 4 5 6 7 8 9 10 11 12 13 14 15 16 17 18 19 20 21 22 23 24 25 26 27 28 29 30 31 32 33 34 35 36 37 38 39 40 41 42 43 44 45 46 47 48 49 50
000
NZUS99 KSGF 290410
HRRSGF

HOURLY WEATHER
NATIONAL WEATHER SERVICE SPRINGFIELD MO
1100 PM CDT FRI AUG 28 2015

......SGF CWA......

CITY           SKY/WX    TMP DP  RH WIND       PRES   REMARKS
SPRINGFIELD    PTCLDY    71  61  70 S9        30.01R
JOPLIN         CLEAR     72  64  76 S7        29.98R
WEST PLAINS    MOCLDY    69  60  73 S5        30.06S
ROLLA          MOCLDY    71  60  68 S12       30.00S
OSAGE BEACH    MOCLDY    72  61  68 S6        29.99S
BRANSON        CLOUDY    72  59  64 CALM      30.03R

......SURROUNDING SGF CWA......

CITY           SKY/WX    TMP DP  RH WIND       PRES   REMARKS
CHANUTE        MOCLDY    71  69  93 CALM      29.96R
PARSONS        PTCLDY    71  69  93 CALM      29.96R
COFFEYVILLE    CLEAR     71  68  90 S6        29.94S
EMPORIA        MOCLDY    72  68  87 SW6       29.96R
GROVE OK       CLEAR     72  66  83 CALM      29.98S
ROGERS AR      CLOUDY    73  62  68 S7        30.02S
SILOAM SPRINGS PTCLDY    72  61  68 S5        30.00R
NEAR YELLVILLE MOCLDY    73  57  56 CALM      30.01S

......KANSAS AND MISSOURI......

CITY           SKY/WX    TMP DP  RH WIND       PRES   REMARKS
KANSAS CTY INT CLOUDY    72  68  87 S9        29.93S
DOWNTOWN KC    CLOUDY    73  69  87 S12       29.92S
COLUMBIA       MOCLDY    70  64  81 SE7       29.99S
SEDALIA        CLOUDY    69  64  84 S10       29.97F
ST JOSEPH      MOCLDY    72  68  87 S7        29.92S
ST LOUIS       CLOUDY    76  60  57 SE9       30.01F
SPIRIT OF STL  CLOUDY    72  63  73 CALM      30.00F
KIRKSVILLE     CLOUDY    68  65  90 S6        29.99R
WICHITA        CLEAR     74  65  73 CALM      29.95R
TOPEKA         CLOUDY    72  70  93 CALM      29.93S
OLATHE         CLOUDY    70  68  93 S12       29.95R

......TENNESSEE......

CITY           SKY/WX    TMP DP  RH WIND       PRES   REMARKS
MEMPHIS        PTCLDY    80  66  62 SE5       30.04S
NASHVILLE      CLEAR     73  64  73 S6        30.11R

......ARKANSAS.......

CITY           SKY/WX    TMP DP  RH WIND       PRES   REMARKS
FAYETTEVILLE   MOCLDY    74  61  63 SE8       30.01R
FT SMITH       CLOUDY    75  64  68 E5        29.98S
LITTLE ROCK    PTCLDY    74  61  63 SE3       30.03R

......OKLAHOMA.......

CITY           SKY/WX    TMP DP  RH WIND       PRES   REMARKS
TULSA          MOCLDY    78  67  68 S10       29.93S
PONCA CITY     CLEAR     77  68  73 S8        29.92F
MCALESTER      MOCLDY    81  61  50 S6        29.98R
OKLAHOMA CITY  PTCLDY    73  67  81 S6        29.97R

......IOWA............

CITY           SKY/WX    TMP DP  RH WIND       PRES   REMARKS
DES MOINES     MOCLDY    71  67  87 SE9       29.90R
QUAD CITIES    LGT RAIN  67  64  90 SE9       30.01S

......ILLINOIS........

CITY           SKY/WX    TMP DP  RH WIND       PRES   REMARKS
QUINCY         CLOUDY    71  63  75 S7        29.99S
CHICAGO        CLOUDY    70  63  78 E6        30.07S



USA.gov is the U.S. government's official web portal to all federal, state and local government web resources and services.